APG127 RCTP-RPLL

Flight info

Callsign APG127
Flight time 1h 57m
Altitude 38000
Route TINHO1A TINHO Q11 POTIB M646 LAO/N0455F370 B462 CAB CAB7R
Aircraft A320/M-SDE3FGHIRWY/LB1

Departure

Time 2026-05-07 15:15
Airport Taiwan Taoyuan International Airport (RCTP)

Arrival

Time 2026-05-07 17:12
Airport Ninoy Aquino International Airport (RPLL)
Time Latitude Longitude Altitude Speed Heading
2026-05-07 15:01 25.08041 121.23954 98 ft 0 kts 319°
2026-05-07 15:02 25.08029 121.23966 100 ft 4 kts 318°
2026-05-07 15:02 25.08009 121.23986 100 ft 4 kts 318°
2026-05-07 15:03 25.07989 121.24006 101 ft 4 kts 316°
2026-05-07 15:03 25.07970 121.24026 102 ft 4 kts 313°
2026-05-07 15:03 25.07955 121.24047 101 ft 3 kts 299°
2026-05-07 15:03 25.07949 121.24061 100 ft 2 kts 272°
2026-05-07 15:04 25.07950 121.24073 100 ft 2 kts 244°
2026-05-07 15:04 25.07955 121.24084 101 ft 2 kts 233°
2026-05-07 15:04 25.07962 121.24094 102 ft 2 kts 230°
2026-05-07 15:04 25.07964 121.24096 100 ft 0 kts 230°
2026-05-07 15:08 25.07962 121.24094 100 ft 4 kts 230°
2026-05-07 15:08 25.07911 121.24031 103 ft 13 kts 229°
2026-05-07 15:08 25.07850 121.23954 103 ft 13 kts 229°
2026-05-07 15:08 25.07792 121.23880 103 ft 12 kts 231°
2026-05-07 15:09 25.07740 121.23811 102 ft 11 kts 230°
2026-05-07 15:09 25.07686 121.23742 102 ft 16 kts 229°
2026-05-07 15:09 25.07585 121.23614 104 ft 27 kts 229°
2026-05-07 15:09 25.07449 121.23442 104 ft 29 kts 228°
2026-05-07 15:10 25.07324 121.23280 106 ft 24 kts 230°
2026-05-07 15:10 25.07232 121.23178 107 ft 14 kts 198°
2026-05-07 15:10 25.07150 121.23223 109 ft 13 kts 141°
2026-05-07 15:10 25.07071 121.23273 111 ft 13 kts 184°
2026-05-07 15:11 25.07009 121.23206 111 ft 13 kts 234°
2026-05-07 15:11 25.06956 121.23134 111 ft 11 kts 228°
2026-05-07 15:11 25.06909 121.23077 111 ft 9 kts 228°
2026-05-07 15:11 25.06851 121.23002 112 ft 18 kts 229°
2026-05-07 15:12 25.06757 121.22884 111 ft 23 kts 228°
2026-05-07 15:12 25.06643 121.22748 113 ft 25 kts 227°
2026-05-07 15:12 25.06542 121.22618 114 ft 21 kts 228°
2026-05-07 15:12 25.06446 121.22490 114 ft 22 kts 232°
2026-05-07 15:13 25.06347 121.22365 113 ft 21 kts 229°
2026-05-07 15:13 25.06256 121.22340 116 ft 14 kts 144°
2026-05-07 15:13 25.06180 121.22408 117 ft 14 kts 141°
2026-05-07 15:13 25.06174 121.22472 116 ft 6 kts 51°
2026-05-07 15:14 25.06177 121.22476 116 ft 0 kts 51°
2026-05-07 15:14 25.06179 121.22478 116 ft 1 kts 50°
2026-05-07 15:14 25.06221 121.22530 116 ft 26 kts 49°
2026-05-07 15:14 25.06517 121.22905 111 ft 100 kts 49°
2026-05-07 15:15 25.07112 121.23657 109 ft 157 kts 49°
2026-05-07 15:15 25.07890 121.24632 496 ft 172 kts 50°
2026-05-07 15:15 25.08694 121.25645 1155 ft 179 kts 50°
2026-05-07 15:15 25.09514 121.26721 1687 ft 192 kts 51°
2026-05-07 15:16 25.10098 121.27500 1904 ft 207 kts 51°
2026-05-07 15:17 25.17562 121.36351 5918 ft 288 kts 45°
2026-05-07 15:17 25.18941 121.37923 6731 ft 293 kts 45°
2026-05-07 15:18 25.20288 121.39466 7481 ft 297 kts 45°
2026-05-07 15:18 25.21731 121.41125 8291 ft 302 kts 45°
2026-05-07 15:18 25.23179 121.42832 9108 ft 306 kts 50°
2026-05-07 15:18 25.24202 121.44901 9871 ft 311 kts 74°
2026-05-07 15:19 25.24453 121.47304 10309 ft 326 kts 97°
2026-05-07 15:19 25.23765 121.49713 10535 ft 343 kts 124°
2026-05-07 15:19 25.22068 121.51600 10953 ft 348 kts 151°
2026-05-07 15:19 25.19937 121.52901 11575 ft 353 kts 155°
2026-05-07 15:20 25.17749 121.54190 12196 ft 359 kts 155°
2026-05-07 15:20 25.15536 121.55489 12879 ft 364 kts 155°
2026-05-07 15:20 25.13285 121.56811 13523 ft 369 kts 155°
2026-05-07 15:20 25.11956 121.57593 13855 ft 372 kts 155°
2026-05-07 15:21 25.09663 121.58949 14456 ft 375 kts 155°
2026-05-07 15:21 25.07355 121.60318 15049 ft 378 kts 154°
2026-05-07 15:21 25.05063 121.61683 15614 ft 381 kts 154°
2026-05-07 15:21 25.02735 121.63073 16207 ft 384 kts 154°
2026-05-07 15:22 25.00372 121.64480 16787 ft 387 kts 154°
2026-05-07 15:22 24.97988 121.65895 17342 ft 391 kts 154°
2026-05-07 15:22 24.95580 121.67320 17927 ft 394 kts 154°
2026-05-07 15:22 24.93166 121.68750 18473 ft 397 kts 155°
2026-05-07 15:23 24.90721 121.70203 18970 ft 399 kts 155°
2026-05-07 15:23 24.88382 121.71588 19447 ft 401 kts 155°
2026-05-07 15:23 24.85906 121.73051 19945 ft 405 kts 155°
2026-05-07 15:23 24.83525 121.74454 20422 ft 408 kts 155°
2026-05-07 15:24 24.81014 121.75935 20900 ft 411 kts 155°
2026-05-07 15:24 24.78490 121.77426 21398 ft 414 kts 155°
2026-05-07 15:24 24.75942 121.78933 21892 ft 417 kts 155°
2026-05-07 15:24 24.73840 121.80176 22287 ft 419 kts 155°
2026-05-07 15:25 24.71262 121.81702 22756 ft 422 kts 155°
2026-05-07 15:25 24.68861 121.83118 23177 ft 425 kts 155°
2026-05-07 15:25 24.66244 121.84655 23614 ft 428 kts 155°
2026-05-07 15:25 24.63607 121.86203 23977 ft 431 kts 155°
2026-05-07 15:26 24.60958 121.87753 24339 ft 433 kts 155°
2026-05-07 15:26 24.58435 121.89232 24673 ft 435 kts 155°
2026-05-07 15:26 24.55756 121.90807 25025 ft 438 kts 155°
2026-05-07 15:26 24.53062 121.92392 25363 ft 441 kts 155°
2026-05-07 15:27 24.50384 121.93966 25693 ft 443 kts 155°
2026-05-07 15:27 24.47627 121.95589 26030 ft 445 kts 155°
2026-05-07 15:27 24.44928 121.97176 26354 ft 448 kts 155°
2026-05-07 15:27 24.42171 121.98793 26682 ft 450 kts 155°
2026-05-07 15:28 24.39334 122.00226 26992 ft 448 kts 164°
2026-05-07 15:28 24.36339 122.01103 27295 ft 445 kts 174°
2026-05-07 15:28 24.33262 122.01388 27612 ft 442 kts 185°
2026-05-07 15:28 24.30222 122.01088 27920 ft 439 kts 194°
2026-05-07 15:29 24.27272 122.00259 28216 ft 438 kts 200°
2026-05-07 15:29 24.24341 121.99292 28511 ft 440 kts 200°
2026-05-07 15:29 24.21406 121.98330 28815 ft 442 kts 200°
2026-05-07 15:29 24.18490 121.97378 29091 ft 444 kts 200°
2026-05-07 15:30 24.15521 121.96411 29371 ft 446 kts 200°
2026-05-07 15:30 24.12537 121.95444 29646 ft 448 kts 200°
2026-05-07 15:30 24.09538 121.94471 29923 ft 450 kts 200°
2026-05-07 15:30 24.06537 121.93495 30159 ft 452 kts 200°
2026-05-07 15:31 24.03560 121.92526 30365 ft 454 kts 200°
2026-05-07 15:31 24.00525 121.91536 30559 ft 456 kts 200°
2026-05-07 15:31 23.97485 121.90542 30752 ft 457 kts 200°
2026-05-07 15:31 23.94431 121.89546 30936 ft 459 kts 200°
2026-05-07 15:32 23.91363 121.88550 31119 ft 461 kts 200°
2026-05-07 15:32 23.88281 121.87553 31326 ft 462 kts 200°
2026-05-07 15:32 23.85199 121.86556 31585 ft 462 kts 200°
2026-05-07 15:32 23.82117 121.85559 31834 ft 462 kts 200°
2026-05-07 15:33 23.79034 121.84560 32077 ft 462 kts 200°
2026-05-07 15:33 23.75949 121.83559 32323 ft 463 kts 200°
2026-05-07 15:33 23.72863 121.82556 32567 ft 463 kts 200°
2026-05-07 15:33 23.69774 121.81554 32809 ft 463 kts 200°
2026-05-07 15:34 23.66679 121.80552 33062 ft 464 kts 200°
2026-05-07 15:34 23.63592 121.79553 33309 ft 464 kts 200°
2026-05-07 15:34 23.60492 121.78550 33561 ft 464 kts 200°
2026-05-07 15:34 23.57430 121.77562 33809 ft 465 kts 200°
2026-05-07 15:35 23.54331 121.76561 34049 ft 465 kts 200°
2026-05-07 15:35 23.51227 121.75556 34266 ft 466 kts 200°
2026-05-07 15:35 23.48118 121.74547 34477 ft 466 kts 200°
2026-05-07 15:35 23.45015 121.73541 34702 ft 466 kts 200°
2026-05-07 15:36 23.41900 121.72535 34918 ft 467 kts 200°
2026-05-07 15:36 23.38784 121.71529 35123 ft 467 kts 200°
2026-05-07 15:36 23.35669 121.70526 35332 ft 467 kts 200°
2026-05-07 15:36 23.32556 121.69525 35531 ft 467 kts 200°
2026-05-07 15:37 23.29435 121.68522 35730 ft 467 kts 200°
2026-05-07 15:37 23.26311 121.67515 35907 ft 467 kts 200°
2026-05-07 15:37 23.20085 121.65502 35977 ft 467 kts 200°
2026-05-07 15:38 23.13903 121.63514 35978 ft 466 kts 200°
2026-05-07 15:38 23.07673 121.61522 35976 ft 466 kts 200°
2026-05-07 15:39 23.01445 121.59526 35975 ft 467 kts 200°
2026-05-07 15:39 22.95210 121.57528 35972 ft 467 kts 200°
2026-05-07 15:40 22.88978 121.55530 35966 ft 467 kts 200°
2026-05-07 15:40 22.82738 121.53536 35967 ft 468 kts 200°
2026-05-07 15:41 22.76537 121.51562 35966 ft 468 kts 200°
2026-05-07 15:41 22.70286 121.49571 35966 ft 468 kts 200°
2026-05-07 15:42 22.64162 121.47253 35964 ft 465 kts 206°
2026-05-07 15:42 22.58164 121.44605 35963 ft 465 kts 206°
2026-05-07 15:43 22.52168 121.41960 35957 ft 465 kts 206°
2026-05-07 15:43 22.46161 121.39329 35960 ft 466 kts 205°
2026-05-07 15:44 22.40197 121.36720 35958 ft 466 kts 205°
2026-05-07 15:44 22.34197 121.34083 35957 ft 466 kts 205°
2026-05-07 15:45 22.28189 121.31440 35951 ft 466 kts 205°
2026-05-07 15:45 22.22180 121.28812 35949 ft 466 kts 205°
2026-05-07 15:46 22.13150 121.24876 35951 ft 467 kts 205°
2026-05-07 15:47 22.07125 121.22243 35949 ft 467 kts 205°
2026-05-07 15:47 22.01138 121.19623 35950 ft 467 kts 205°
2026-05-07 15:48 21.95115 121.16995 35950 ft 467 kts 205°
2026-05-07 15:48 21.89086 121.14371 35954 ft 467 kts 205°
2026-05-07 15:49 21.83060 121.11748 35955 ft 467 kts 205°
2026-05-07 15:49 21.77032 121.09128 35955 ft 467 kts 205°
2026-05-07 15:50 21.71007 121.06505 35953 ft 467 kts 205°
2026-05-07 15:50 21.65016 121.03902 35947 ft 467 kts 205°
2026-05-07 15:51 21.58996 121.01296 35946 ft 467 kts 205°
2026-05-07 15:51 21.52972 120.98692 35950 ft 467 kts 205°
2026-05-07 15:52 21.46951 120.96082 35951 ft 467 kts 205°
2026-05-07 15:52 21.40931 120.93473 35954 ft 467 kts 205°
2026-05-07 15:53 21.34891 120.90862 35955 ft 467 kts 204°
2026-05-07 15:53 21.28866 120.88266 35955 ft 467 kts 204°
2026-05-07 15:54 21.22881 120.85683 35953 ft 467 kts 204°
2026-05-07 15:54 21.16860 120.83082 35953 ft 466 kts 204°
2026-05-07 15:55 21.10845 120.80489 35949 ft 466 kts 204°
2026-05-07 15:55 21.04823 120.77902 35946 ft 466 kts 204°
2026-05-07 15:56 20.98647 120.75798 35947 ft 469 kts 191°
2026-05-07 15:56 20.92122 120.75168 35945 ft 471 kts 186°
2026-05-07 15:57 20.85798 120.74664 35942 ft 471 kts 186°
2026-05-07 15:57 20.79258 120.74126 35942 ft 471 kts 186°
2026-05-07 15:58 20.72762 120.73578 35947 ft 472 kts 186°
2026-05-07 15:58 20.66211 120.73031 35948 ft 472 kts 186°
2026-05-07 15:59 20.59662 120.72495 35951 ft 472 kts 186°
2026-05-07 15:59 20.53109 120.71964 35946 ft 472 kts 186°
2026-05-07 16:00 20.46567 120.71431 35942 ft 471 kts 186°
2026-05-07 16:00 20.40031 120.70894 35942 ft 471 kts 186°
2026-05-07 16:01 20.33494 120.70355 35946 ft 471 kts 186°
2026-05-07 16:01 20.27138 120.69831 35945 ft 471 kts 186°
2026-05-07 16:02 20.20667 120.69296 35942 ft 471 kts 186°
2026-05-07 16:02 20.14182 120.68769 35940 ft 471 kts 186°
2026-05-07 16:03 20.07754 120.68246 35937 ft 471 kts 186°
2026-05-07 16:03 20.01218 120.67713 35936 ft 471 kts 186°
2026-05-07 16:04 19.94683 120.67182 35936 ft 471 kts 186°
2026-05-07 16:04 19.88156 120.66650 35935 ft 471 kts 186°
2026-05-07 16:05 19.81618 120.66114 35931 ft 471 kts 186°
2026-05-07 16:05 19.75093 120.65584 35930 ft 471 kts 186°
2026-05-07 16:06 19.68554 120.65048 35928 ft 471 kts 186°
2026-05-07 16:06 19.62070 120.64517 35927 ft 471 kts 186°
2026-05-07 16:07 19.55638 120.63998 35927 ft 471 kts 186°
2026-05-07 16:07 19.49116 120.63475 35923 ft 471 kts 186°
2026-05-07 16:08 19.42577 120.62945 35924 ft 471 kts 186°
2026-05-07 16:08 19.36049 120.62415 35924 ft 471 kts 186°
2026-05-07 16:09 19.30611 120.61969 35922 ft 471 kts 186°
2026-05-07 16:09 19.24097 120.61439 35924 ft 471 kts 186°
2026-05-07 16:10 19.17562 120.60909 35917 ft 471 kts 186°
2026-05-07 16:10 19.11033 120.60385 35916 ft 471 kts 186°
2026-05-07 16:11 19.04499 120.59863 35914 ft 471 kts 186°
2026-05-07 16:11 18.97972 120.59337 35913 ft 470 kts 186°
2026-05-07 16:12 18.91443 120.58813 35911 ft 470 kts 186°
2026-05-07 16:12 18.84914 120.58284 35906 ft 470 kts 186°
2026-05-07 16:13 18.78395 120.57755 35903 ft 470 kts 186°
2026-05-07 16:13 18.71873 120.57228 35903 ft 470 kts 186°
2026-05-07 16:14 18.65390 120.56707 35898 ft 470 kts 186°
2026-05-07 16:14 18.58873 120.56184 35899 ft 470 kts 186°
2026-05-07 16:15 18.52356 120.55661 35898 ft 469 kts 186°
2026-05-07 16:15 18.45845 120.55142 35905 ft 469 kts 186°
2026-05-07 16:16 18.39344 120.54629 35907 ft 468 kts 186°
2026-05-07 16:16 18.32845 120.54108 35909 ft 468 kts 186°
2026-05-07 16:17 18.26361 120.53581 35909 ft 467 kts 186°
2026-05-07 16:17 18.19914 120.53073 35905 ft 468 kts 184°
2026-05-07 16:18 18.13436 120.53728 35907 ft 470 kts 171°
2026-05-07 16:18 18.07001 120.54944 35905 ft 470 kts 171°
2026-05-07 16:19 18.00553 120.56145 35904 ft 470 kts 171°
2026-05-07 16:19 17.94100 120.57330 35904 ft 470 kts 172°
2026-05-07 16:20 17.87651 120.58511 35906 ft 470 kts 171°
2026-05-07 16:20 17.81212 120.59697 35909 ft 470 kts 171°
2026-05-07 16:21 17.74810 120.60881 35915 ft 469 kts 171°
2026-05-07 16:21 17.68379 120.62074 35916 ft 469 kts 171°
2026-05-07 16:22 17.61946 120.63269 35918 ft 469 kts 171°
2026-05-07 16:22 17.55515 120.64451 35925 ft 469 kts 171°
2026-05-07 16:23 17.49088 120.65629 35932 ft 469 kts 171°
2026-05-07 16:23 17.42668 120.66814 35940 ft 468 kts 171°
2026-05-07 16:24 17.36242 120.67992 35949 ft 468 kts 171°
2026-05-07 16:24 17.29836 120.69179 35951 ft 467 kts 171°
2026-05-07 16:25 17.23475 120.70347 35955 ft 467 kts 171°
2026-05-07 16:25 17.17084 120.71529 35971 ft 467 kts 171°
2026-05-07 16:26 17.10695 120.72712 35981 ft 466 kts 171°
2026-05-07 16:26 17.04303 120.73889 35988 ft 466 kts 171°
2026-05-07 16:27 16.97916 120.75060 35991 ft 466 kts 171°
2026-05-07 16:27 16.91541 120.76237 36001 ft 465 kts 171°
2026-05-07 16:28 16.85166 120.77418 36010 ft 465 kts 171°
2026-05-07 16:28 16.78807 120.78592 36006 ft 464 kts 171°
2026-05-07 16:29 16.72437 120.79752 36015 ft 464 kts 171°
2026-05-07 16:29 16.66118 120.80901 36016 ft 464 kts 171°
2026-05-07 16:30 16.59770 120.82076 36014 ft 464 kts 171°
2026-05-07 16:30 16.53417 120.83247 36011 ft 464 kts 171°
2026-05-07 16:30 16.50235 120.83833 35794 ft 463 kts 171°
2026-05-07 16:31 16.47061 120.84416 35556 ft 463 kts 171°
2026-05-07 16:31 16.43886 120.84998 35320 ft 463 kts 171°
2026-05-07 16:31 16.40708 120.85581 35086 ft 464 kts 171°
2026-05-07 16:31 16.37529 120.86164 34772 ft 465 kts 171°
2026-05-07 16:32 16.34330 120.86750 33842 ft 470 kts 171°
2026-05-07 16:32 16.31087 120.87341 32712 ft 476 kts 171°
2026-05-07 16:32 16.27807 120.87936 31677 ft 478 kts 171°
2026-05-07 16:32 16.24588 120.88524 31084 ft 460 kts 171°
2026-05-07 16:33 16.21480 120.89093 30435 ft 446 kts 171°
2026-05-07 16:33 16.18466 120.89645 29766 ft 434 kts 171°
2026-05-07 16:33 16.15531 120.90184 29122 ft 422 kts 171°
2026-05-07 16:33 16.12649 120.90710 28531 ft 420 kts 171°
2026-05-07 16:34 16.09781 120.91233 27931 ft 417 kts 171°
2026-05-07 16:34 16.06933 120.91750 27351 ft 412 kts 171°
2026-05-07 16:34 16.04122 120.92259 26771 ft 408 kts 171°
2026-05-07 16:34 16.01370 120.92759 26209 ft 404 kts 171°
2026-05-07 16:35 15.98608 120.93262 25646 ft 401 kts 171°
2026-05-07 16:35 15.95879 120.93761 25097 ft 397 kts 171°
2026-05-07 16:35 15.93168 120.94255 24562 ft 394 kts 171°
2026-05-07 16:35 15.90482 120.94747 24044 ft 390 kts 171°
2026-05-07 16:36 15.87822 120.95235 23540 ft 387 kts 171°
2026-05-07 16:36 15.85253 120.95707 23004 ft 388 kts 170°
2026-05-07 16:36 15.82607 120.96192 22524 ft 385 kts 170°
2026-05-07 16:36 15.79976 120.96671 22061 ft 382 kts 170°
2026-05-07 16:37 15.77364 120.97144 21595 ft 379 kts 170°
2026-05-07 16:37 15.74770 120.97613 21127 ft 377 kts 170°
2026-05-07 16:37 15.72197 120.98079 20657 ft 375 kts 170°
2026-05-07 16:37 15.69654 120.98538 20180 ft 374 kts 169°
2026-05-07 16:38 15.67094 120.99001 19697 ft 373 kts 169°
2026-05-07 16:38 15.64540 120.99463 19202 ft 373 kts 169°
2026-05-07 16:38 15.61982 120.99925 18705 ft 373 kts 169°
2026-05-07 16:38 15.59426 121.00388 18193 ft 373 kts 169°
2026-05-07 16:39 15.56871 121.00851 17641 ft 373 kts 169°
2026-05-07 16:39 15.54324 121.01314 17134 ft 371 kts 169°
2026-05-07 16:39 15.51782 121.01780 16637 ft 369 kts 169°
2026-05-07 16:39 15.49258 121.02243 16139 ft 368 kts 169°
2026-05-07 16:40 15.46743 121.02716 15719 ft 365 kts 168°
2026-05-07 16:40 15.44249 121.03237 15506 ft 365 kts 167°
2026-05-07 16:40 15.41738 121.03529 15264 ft 364 kts 182°
2026-05-07 16:40 15.39249 121.03051 15034 ft 364 kts 195°
2026-05-07 16:41 15.36816 121.02318 14803 ft 363 kts 195°
2026-05-07 16:41 15.34432 121.01587 14578 ft 362 kts 195°
2026-05-07 16:41 15.32025 121.00845 14350 ft 361 kts 196°
2026-05-07 16:41 15.29618 121.00103 14120 ft 359 kts 195°
2026-05-07 16:42 15.27230 120.99369 13900 ft 358 kts 195°
2026-05-07 16:42 15.24846 120.98639 13677 ft 357 kts 195°
2026-05-07 16:42 15.22470 120.97909 13418 ft 355 kts 195°
2026-05-07 16:42 15.20102 120.97181 13166 ft 354 kts 195°
2026-05-07 16:43 15.17749 120.96459 12912 ft 353 kts 195°
2026-05-07 16:43 15.15399 120.95740 12673 ft 352 kts 195°
2026-05-07 16:43 15.13050 120.95025 12423 ft 350 kts 195°
2026-05-07 16:43 15.10716 120.94318 12180 ft 349 kts 195°
2026-05-07 16:44 15.08398 120.93615 11853 ft 345 kts 195°
2026-05-07 16:44 15.06102 120.92913 11374 ft 343 kts 195°
2026-05-07 16:44 15.03843 120.92222 10918 ft 341 kts 194°
2026-05-07 16:44 15.01570 120.91527 10465 ft 339 kts 194°
2026-05-07 16:45 14.99352 120.90847 10318 ft 327 kts 194°
2026-05-07 16:45 14.97209 120.90190 10208 ft 315 kts 194°
2026-05-07 16:45 14.95143 120.89558 10001 ft 307 kts 194°
2026-05-07 16:45 14.93118 120.88939 9878 ft 303 kts 194°
2026-05-07 16:46 14.91749 120.88522 9605 ft 304 kts 194°
2026-05-07 16:46 14.89066 120.87710 9050 ft 302 kts 194°
2026-05-07 16:46 14.87053 120.87101 8642 ft 301 kts 194°
2026-05-07 16:46 14.85049 120.86492 8225 ft 299 kts 194°
2026-05-07 16:47 14.84377 120.86288 8125 ft 298 kts 194°
2026-05-07 16:47 14.83137 120.85909 7972 ft 292 kts 194°
2026-05-07 16:47 14.81194 120.85314 7487 ft 292 kts 194°
2026-05-07 16:47 14.79278 120.84730 7061 ft 281 kts 194°
2026-05-07 16:48 14.77440 120.84171 6686 ft 269 kts 194°
2026-05-07 16:48 14.76272 120.83817 6441 ft 261 kts 194°
2026-05-07 16:48 14.74549 120.83294 5930 ft 256 kts 194°
2026-05-07 16:49 14.69397 120.82050 4682 ft 228 kts 172°
2026-05-07 16:49 14.67839 120.82509 4339 ft 222 kts 150°
2026-05-07 16:49 14.66621 120.83452 4027 ft 218 kts 130°
2026-05-07 16:50 14.65628 120.84633 3724 ft 219 kts 129°
2026-05-07 16:50 14.64628 120.85816 3427 ft 218 kts 129°
2026-05-07 16:50 14.63633 120.86990 3128 ft 214 kts 129°
2026-05-07 16:50 14.62680 120.88115 2842 ft 202 kts 129°
2026-05-07 16:51 14.61772 120.89190 2647 ft 196 kts 129°
2026-05-07 16:51 14.60878 120.90247 2432 ft 195 kts 129°
2026-05-07 16:51 14.60008 120.91278 2262 ft 183 kts 129°
2026-05-07 16:51 14.59198 120.92234 2042 ft 171 kts 129°
2026-05-07 16:52 14.58451 120.93115 1853 ft 156 kts 129°
2026-05-07 16:52 14.57773 120.93914 1719 ft 146 kts 129°
2026-05-07 16:52 14.57113 120.94695 1513 ft 142 kts 129°
2026-05-07 16:52 14.56477 120.95446 1323 ft 137 kts 128°
2026-05-07 16:53 14.55854 120.96185 1140 ft 135 kts 129°
2026-05-07 16:53 14.55239 120.96914 969 ft 134 kts 128°
2026-05-07 16:53 14.54613 120.97659 915 ft 150 kts 129°
2026-05-07 16:53 14.53878 120.98543 1399 ft 175 kts 128°
2026-05-07 16:54 14.53049 120.99549 1765 ft 197 kts 129°
2026-05-07 16:54 14.52122 121.00669 2235 ft 212 kts 128°
2026-05-07 16:54 14.51143 121.01826 3075 ft 213 kts 129°
2026-05-07 16:54 14.50152 121.02982 3729 ft 218 kts 129°
2026-05-07 16:55 14.49145 121.04157 3941 ft 218 kts 129°
2026-05-07 16:55 14.48145 121.05330 4004 ft 217 kts 129°
2026-05-07 16:55 14.47148 121.06501 4007 ft 217 kts 129°
2026-05-07 16:55 14.46152 121.07670 4008 ft 217 kts 129°
2026-05-07 16:56 14.45153 121.08837 4011 ft 217 kts 129°
2026-05-07 16:56 14.44162 121.09987 4011 ft 217 kts 130°
2026-05-07 16:56 14.41358 121.10831 4013 ft 228 kts 197°
2026-05-07 16:57 14.40039 121.09933 4016 ft 231 kts 228°
2026-05-07 16:57 14.39085 121.08592 4013 ft 233 kts 236°
2026-05-07 16:57 14.38204 121.07189 4009 ft 233 kts 237°
2026-05-07 16:57 14.37339 121.05775 4013 ft 234 kts 237°
2026-05-07 16:58 14.36476 121.04358 4011 ft 233 kts 237°
2026-05-07 16:58 14.35612 121.02937 4007 ft 234 kts 237°
2026-05-07 16:58 14.34751 121.01519 4011 ft 234 kts 237°
2026-05-07 16:58 14.33892 121.00093 4009 ft 233 kts 237°
2026-05-07 16:59 14.33037 120.98672 4010 ft 232 kts 237°
2026-05-07 16:59 14.32183 120.97256 4011 ft 233 kts 237°
2026-05-07 16:59 14.31328 120.95834 4009 ft 234 kts 237°
2026-05-07 16:59 14.30472 120.94407 4011 ft 234 kts 237°
2026-05-07 17:00 14.29618 120.92982 4009 ft 233 kts 237°
2026-05-07 17:00 14.28781 120.91570 4010 ft 234 kts 237°
2026-05-07 17:00 14.27930 120.90138 4011 ft 234 kts 237°
2026-05-07 17:00 14.27075 120.88697 4009 ft 236 kts 237°
2026-05-07 17:01 14.26224 120.87258 4011 ft 235 kts 237°
2026-05-07 17:01 14.25373 120.85827 4013 ft 234 kts 237°
2026-05-07 17:01 14.24522 120.84397 4012 ft 234 kts 237°
2026-05-07 17:01 14.23670 120.82970 4005 ft 233 kts 237°
2026-05-07 17:02 14.22828 120.81549 4008 ft 233 kts 237°
2026-05-07 17:02 14.22082 120.80064 4000 ft 233 kts 256°
2026-05-07 17:02 14.22098 120.78427 4000 ft 230 kts 290°
2026-05-07 17:02 14.22951 120.77078 4006 ft 226 kts 320°
2026-05-07 17:03 14.24174 120.76053 4011 ft 227 kts 326°
2026-05-07 17:03 14.25445 120.75088 4004 ft 226 kts 327°
2026-05-07 17:03 14.26715 120.74134 4005 ft 226 kts 327°
2026-05-07 17:03 14.27986 120.73183 4005 ft 226 kts 327°
2026-05-07 17:04 14.29246 120.72251 4008 ft 225 kts 330°
2026-05-07 17:04 14.30692 120.71754 4010 ft 217 kts
2026-05-07 17:04 14.32140 120.72091 4014 ft 214 kts 24°
2026-05-07 17:04 14.33511 120.72686 4013 ft 214 kts 26°
2026-05-07 17:05 14.34785 120.73454 4010 ft 211 kts 44°
2026-05-07 17:05 14.35667 120.74643 4014 ft 210 kts 61°
2026-05-07 17:05 14.36393 120.75950 4013 ft 210 kts 61°
2026-05-07 17:05 14.37115 120.77249 4008 ft 203 kts 61°
2026-05-07 17:06 14.37798 120.78474 4005 ft 191 kts 61°
2026-05-07 17:06 14.38456 120.79656 4005 ft 190 kts 61°
2026-05-07 17:06 14.39107 120.80824 3965 ft 191 kts 61°
2026-05-07 17:06 14.39765 120.82006 3782 ft 190 kts 61°
2026-05-07 17:07 14.40421 120.83182 3561 ft 188 kts 62°
2026-05-07 17:07 14.41064 120.84337 3354 ft 181 kts 62°
2026-05-07 17:07 14.41669 120.85423 3112 ft 168 kts 62°
2026-05-07 17:07 14.42233 120.86434 2894 ft 157 kts 62°
2026-05-07 17:08 14.42760 120.87381 2698 ft 147 kts 62°
2026-05-07 17:08 14.43255 120.88271 2509 ft 139 kts 62°
2026-05-07 17:08 14.43727 120.89120 2344 ft 135 kts 62°
2026-05-07 17:08 14.44193 120.89956 2192 ft 133 kts 62°
2026-05-07 17:09 14.44652 120.90782 2014 ft 132 kts 61°
2026-05-07 17:09 14.45110 120.91605 1839 ft 132 kts 62°
2026-05-07 17:09 14.45567 120.92427 1669 ft 133 kts 61°
2026-05-07 17:09 14.46028 120.93254 1492 ft 133 kts 61°
2026-05-07 17:10 14.46483 120.94074 1323 ft 131 kts 62°
2026-05-07 17:10 14.46940 120.94894 1158 ft 132 kts 62°
2026-05-07 17:10 14.47399 120.95720 994 ft 134 kts 60°
2026-05-07 17:10 14.47856 120.96542 837 ft 134 kts 61°
2026-05-07 17:11 14.48320 120.97377 676 ft 135 kts 63°
2026-05-07 17:11 14.48784 120.98211 539 ft 134 kts 63°
2026-05-07 17:11 14.49246 120.99044 315 ft 133 kts 62°
2026-05-07 17:11 14.49712 120.99879 160 ft 134 kts 63°
2026-05-07 17:12 14.50166 121.00686 65 ft 119 kts 60°
2026-05-07 17:12 14.50481 121.01275 69 ft 69 kts 59°
2026-05-07 17:12 14.50645 121.01563 68 ft 35 kts 59°
2026-05-07 17:12 14.50757 121.01714 62 ft 17 kts 38°
2026-05-07 17:13 14.50835 121.01773 65 ft 13 kts 36°
2026-05-07 17:13 14.50901 121.01773 66 ft 9 kts 318°
2026-05-07 17:13 14.50944 121.01730 68 ft 8 kts 315°
2026-05-07 17:13 14.50984 121.01689 67 ft 8 kts 315°
2026-05-07 17:14 14.51022 121.01651 61 ft 7 kts 314°
2026-05-07 17:14 14.51056 121.01614 66 ft 7 kts 312°
2026-05-07 17:14 14.51112 121.01558 59 ft 18 kts 316°
2026-05-07 17:14 14.51185 121.01483 66 ft 12 kts 315°
2026-05-07 17:15 14.51245 121.01428 63 ft 11 kts 334°
2026-05-07 17:15 14.51304 121.01455 65 ft 9 kts 46°
2026-05-07 17:15 14.51348 121.01493 68 ft 7 kts 49°
2026-05-07 17:15 14.51379 121.01531 65 ft 7 kts 49°
2026-05-07 17:16 14.51426 121.01584 67 ft 13 kts 44°
2026-05-07 17:16 14.51501 121.01650 59 ft 15 kts 44°
2026-05-07 17:16 14.51574 121.01726 64 ft 15 kts 45°
2026-05-07 17:16 14.51652 121.01785 69 ft 14 kts
2026-05-07 17:17 14.51719 121.01755 67 ft 10 kts 317°
2026-05-07 17:17 14.51750 121.01723 69 ft 0 kts 312°
2026-05-07 17:17 14.51753 121.01715 62 ft 1 kts 287°
2026-05-07 17:17 14.51746 121.01702 64 ft 5 kts 239°
2026-05-07 17:18 14.51722 121.01678 62 ft 4 kts 225°
2026-05-07 17:18 14.51706 121.01661 61 ft 0 kts 225°